Location: ????????
(56.0167°N, 38.0333°E)
Time: 00:56:21
(UTC+00:00)

Cosmos 2016 Rocket - Pass Details

Date: 19 May 2025
Orbit: 946 x 999 km, 83.0° (Epoch: 13 June)

Event Time Altitude Azimuth Distance (km) Brightness Sun altitude
Rises 22:34:52 0° 347° (NNW) 3,640 8.1 -12.6°
Reaches altitude 10° 22:37:23 10° 344° (NNW) 2,695 7.2 -12.5°
Maximum altitude 22:43:25 61° 266° (W) 1,086 4.1 -12.2°
Enters shadow 22:48:30 15° 190° (S) 2,345 5.4 -11.9°
